This demonstration page uses our WeatherBlox Daily Observations layout. Learn more.

Left ArrowRight Arrow

39.51506, -84.39828

Hourly Observations for August 24, 2020

Temp ( °F °C ) Dew Point ( °F °C ) Humidity (%) Winds ( mph kmh ) Pressure ( in mb ) Visibility ( mi km ) Precip ( " mm )
12:15 am 00:15 Clear 67 19.6 67 19.6 100 100 Calm 30.06 1018 10 16.0934 0 0
12:35 am 00:35 Hazy 68 20 N/A N/A Calm 30.05 1018 7 11.26538 0 0
12:55 am 00:55 Clear with Mist and Fog 68 20 68 20 100 100 Calm 30.05 1018 5 8.0467 0 0
1:15 am 01:15 Hazy 66 19 N/A N/A Calm 30.06 1018 5 8.0467 0 0
1:35 am 01:35 Clear with Mist and Fog 66 19 N/A N/A Calm 30.06 1018 3.5 5.63269 0 0
1:55 am 01:55 Mostly Cloudy with Mist and Fog 66 19 N/A N/A Calm 30.06 1018 1.25 2.011675 0 0
2:15 am 02:15 Hazy 66 19 N/A N/A Calm 30.06 1018 5 8.0467 0 0
2:35 am 02:35 Clear with Mist and Fog 64 18 N/A N/A Calm 30.06 1018 3 4.82802 0 0
2:55 am 02:55 Clear with Mist and Fog 66 19 N/A N/A Calm 30.06 1018 3 4.82802 0 0
3:15 am 03:15 Clear with Mist and Fog 66 19 N/A N/A Calm 30.06 1018 2.5 4.02335 0 0
3:35 am 03:35 Hazy 66 19 N/A N/A Calm 30.06 1018 5 8.0467 0 0
3:55 am 03:55 Hazy 66 19 N/A N/A Calm 30.06 1018 4 6.43736 0 0
4:15 am 04:15 Hazy 64 18 N/A N/A Calm 30.06 1018 4 6.43736 0 0
4:35 am 04:35 Mostly Cloudy with Fog 64 18 N/A N/A Calm 30.06 1018 0.5 0.80467 0 0
4:55 am 04:55 Mostly Cloudy with Fog 64 18 N/A N/A Calm 30.06 1018 0.5 0.80467 0 0
5:15 am 05:15 Mostly Cloudy with Fog 64 18 N/A N/A Calm 30.06 1018 0.25 0.402335 0 0
5:35 am 05:35 Mostly Cloudy with Fog 64 18 N/A N/A Calm 30.07 1018 0.25 0.402335 0 0
5:55 am 05:55 Mostly Cloudy with Fog 66 19 N/A N/A Calm 30.07 1018 0.25 0.402335 0 0
6:15 am 06:15 Mostly Cloudy with Fog 64 18 N/A N/A Calm 30.07 1018 N/A 0 0
6:35 am 06:35 Mostly Cloudy with Fog 64 18 N/A N/A Calm 30.08 1019 0.25 0.402335 0 0
6:55 am 06:55 Mostly Cloudy with Fog 64 18 N/A N/A Calm 30.08 1019 N/A 0 0
7:15 am 07:15 Mostly Cloudy with Fog 64 18 N/A N/A Calm 30.09 1019 N/A 0 0
7:35 am 07:35 Cloudy with Fog 64 18 N/A N/A Calm 30.09 1019 0.25 0.402335 0 0
7:55 am 07:55 Cloudy with Mist and Fog 68 20 N/A N/A Calm 30.08 1019 1.75 2.816345 0 0
8:15 am 08:15 Hazy 68 20 N/A N/A Calm 30.09 1019 5 8.0467 0 0
8:35 am 08:35 Hazy 70 21 N/A N/A SW 3 6 30.1 1019 4 6.43736 0 0
8:55 am 08:55 Hazy 70 21 N/A N/A SW 5 7 30.1 1019 7 11.26538 0 0
9:15 am 09:15 Partly Cloudy 71 21.8 71 21.7 99 99 SW 5 7 30.1 1019 7 11.26538 0 0
9:35 am 09:35 Partly Cloudy 74 23.1 71 21.9 93 93 SSW 5 7 30.1 1019 10 16.0934 0 0
9:55 am 09:55 Cloudy 74 23.5 71 21.5 89 89 SSW 7 11 30.11 1020 10 16.0934 0 0
10:15 am 10:15 Cloudy 75 23.9 71 21.5 86 86 SW 6 9 30.11 1019 10 16.0934 0 0
10:35 am 10:35 Mostly Cloudy 78 25.5 71 21.4 78 78 SSW 6 9 30.1 1019 10 16.0934 0 0
10:55 am 10:55 Sunny 80 26.8 70 21.3 72 72 WSW 5 7 30.1 1019 10 16.0934 0 0
11:15 am 11:15 Sunny 82 27.9 70 21.3 67 67 SW 8 13 30.09 1019 10 16.0934 0 0
11:35 am 11:35 Sunny 83 28.6 70 21.3 65 65 SSW 8 13 30.08 1019 10 16.0934 0 0
11:55 am 11:55 Sunny 85 29.5 71 21.7 63 63 WSW 10 17 30.07 1018 10 16.0934 0 0
12:15 pm 12:15 Partly Cloudy 86 30.1 71 21.4 60 60 SW 13 20 30.07 1018 10 16.0934 0 0
12:35 pm 12:35 Sunny 87 30.3 70 21.3 59 59 SW 13 20 30.07 1018 10 16.0934 0 0
12:55 pm 12:55 Sunny 87 30.7 70 21 56 56 SW 12 19 30.06 1018 10 16.0934 0 0
1:15 pm 13:15 Sunny 88 30.9 69 20.7 55 55 SW 14 22 30.06 1018 10 16.0934 0 0
1:35 pm 13:35 Mostly Cloudy 86 30.2 69 20.3 55 55 SSW 10 17 30.05 1018 10 16.0934 0 0
1:55 pm 13:55 Partly Cloudy 87 30.8 69 20.5 54 54 SSW 15 24 30.05 1018 10 16.0934 0 0
2:15 pm 14:15 Partly Cloudy 88 31.3 70 21.2 55 55 SSW 13 20 30.04 1017 10 16.0934 0 0
2:35 pm 14:35 Partly Cloudy 89 31.7 69 20.8 52 52 SW 13 20 30.03 1017 10 16.0934 0 0
2:55 pm 14:55 Partly Cloudy 88 31 70 20.9 55 55 SW 13 20 30.03 1017 10 16.0934 0 0
3:15 pm 15:15 Partly Cloudy 90 32 71 21.4 53 53 WSW 10 17 30.02 1017 10 16.0934 0 0
3:35 pm 15:35 Cloudy with Light Rain 83 28.1 71 21.8 69 69 WSW 8 13 30.03 1017 10 16.0934 0 0
3:55 pm 15:55 Partly Cloudy 88 31.3 71 21.9 57 57 SW 13 20 30.01 1016 10 16.0934 0 0
4:15 pm 16:15 Partly Cloudy 90 32.1 71 21.5 53 53 SW 13 20 30 1016 10 16.0934 0 0
4:35 pm 16:35 Sunny 90 32.4 70 21.2 52 52 W 15 24 29.99 1015 10 16.0934 0 0
4:55 pm 16:55 Partly Cloudy 89 31.7 70 21 53 53 SW 13 20 29.99 1016 10 16.0934 0 0
5:15 pm 17:15 Sunny 88 31.3 69 20.8 54 54 W 9 15 29.99 1016 10 16.0934 0 0
5:35 pm 17:35 Partly Cloudy 90 32.1 69 20.8 51 51 WSW 10 17 29.98 1015 10 16.0934 0 0
5:55 pm 17:55 Partly Cloudy 89 31.5 70 21.1 54 54 WSW 14 22 29.99 1016 10 16.0934 0 0
6:15 pm 18:15 Partly Cloudy 88 31.2 70 21.3 56 56 SW 12 19 29.99 1016 10 16.0934 0 0
6:35 pm 18:35 Sunny 87 30.5 70 21.1 57 57 W 12 19 29.99 1016 10 16.0934 0 0
6:55 pm 18:55 Partly Cloudy 87 30.6 71 21.5 58 58 WSW 7 11 29.99 1016 10 16.0934 0 0
7:15 pm 19:15 Partly Cloudy 83 28.4 71 21.5 66 66 W 5 7 30 1016 10 16.0934 0 0
7:35 pm 19:35 Sunny 81 27.3 71 21.8 72 72 SW 6 9 30 1016 10 16.0934 0 0
7:55 pm 19:55 Sunny 83 28.1 71 21.8 69 69 WSW 8 13 30 1016 10 16.0934 0 0
8:15 pm 20:15 Sunny 81 27.3 71 21.9 72 72 WSW 6 9 30 1016 10 16.0934 0 0
8:35 pm 20:35 Clear 79 26.2 72 22 78 78 W 5 7 30.01 1016 10 16.0934 0 0
8:55 pm 20:55 Clear 78 25.6 72 22 81 81 SW 5 7 30.01 1016 10 16.0934 0 0
9:15 pm 21:15 Clear 78 25.8 72 22.1 80 80 WSW 5 7 30.02 1017 10 16.0934 0 0
9:35 pm 21:35 Clear 77 25 72 22.2 85 85 Calm 30.02 1017 10 16.0934 0 0
9:55 pm 21:55 Clear 77 25.1 72 22.3 85 85 SW 3 6 30.03 1017 10 16.0934 0 0
10:15 pm 22:15 Clear 76 24.2 72 22.3 89 89 Calm 30.03 1017 10 16.0934 0 0
10:35 pm 22:35 Clear 76 24.3 72 22.3 89 89 SW 3 6 30.03 1017 10 16.0934 0 0
10:55 pm 22:55 Clear 76 24.6 72 22.3 87 87 WSW 3 6 30.03 1017 10 16.0934 0 0
11:15 pm 23:15 Clear 75 23.8 72 22 90 90 SW 3 6 30.04 1017 10 16.0934 0 0
11:35 pm 23:35 Clear 74 23.5 72 22.1 92 92 WSW 3 6 30.04 1017 10 16.0934 0 0
11:55 pm 23:55 Clear 74 23.6 71 21.9 90 90 W 3 6 30.04 1017 10 16.0934 0 0

Powered by AerisWeather